Date,TemperatureHighF,TemperatureAvgF,TemperatureLowF,DewpointHighF,DewpointAvgF,DewpointLowF,HumidityHigh,HumidityAvg,HumidityLow,PressureMaxIn,PressureMinIn,WindSpeedMaxMPH,WindSpeedAvgMPH,GustSpeedMaxMPH,PrecipitationSumIn
2013-1-1,44.7,41.9,39.8,34.9,32.6,29.7,81,70,62,30.01,29.89,8,2,10,0.00
2013-1-2,39.8,35.1,29.0,31.8,23.6,17.8,75,63,47,30.24,29.98,7,2,12,0.00
2013-1-3,35.9,31.9,27.9,27.4,22.4,19.3,81,68,56,30.25,30.16,8,3,10,0.00
2013-1-4,43.6,37.8,31.4,27.9,25.7,23.7,82,62,49,30.20,30.09,13,4,20,0.00
2013-1-5,41.7,37.2,32.4,34.0,27.3,24.0,87,68,55,30.38,30.14,9,2,13,0.00
2013-1-6,50.9,42.4,33.9,38.4,34.5,30.6,92,75,50,30.22,30.03,12,4,17,0.00
2013-1-7,47.8,40.2,29.0,33.4,30.7,26.7,93,70,51,30.44,30.14,8,2,14,0.00
2013-1-8,52.6,41.8,29.3,39.2,35.7,27.5,95,80,60,30.44,30.36,15,5,19,0.00
2013-1-9,56.2,44.7,33.3,47.3,39.6,31.8,96,83,50,30.38,30.22,12,2,14,0.00
2013-1-10,52.7,45.3,37.5,37.1,33.1,30.7,86,63,49,30.59,30.37,10,2,13,0.00
2013-1-11,47.4,41.4,33.7,45.4,38.5,31.1,97,89,76,30.50,30.09,6,0,9,0.07
2013-1-12,51.9,45.2,41.4,47.6,43.7,40.5,100,95,84,30.17,30.09,6,1,8,0.00
2013-1-13,54.6,46.9,41.5,54.6,46.7,40.6,100,99,97,30.14,29.98,12,4,15,0.00
2013-1-14,58.3,53.0,42.3,58.3,50.5,39.1,100,92,68,30.28,29.95,15,6,20,0.18
2013-1-15,42.2,40.2,37.4,40.9,38.9,36.1,96,95,92,30.33,30.14,11,4,15,0.87
2013-1-16,42.7,39.4,36.4,41.6,38.3,35.1,96,96,95,30.15,29.84,19,4,24,0.53
2013-1-17,43.3,41.3,37.9,42.1,38.7,34.3,97,91,73,30.13,29.96,8,1,12,0.15
2013-1-18,39.5,35.8,28.8,34.5,25.0,15.0,83,65,43,30.51,30.02,16,4,23,0.00
2013-1-19,49.6,42.6,35.3,37.3,33.3,27.5,79,70,58,30.44,29.99,22,14,28,0.00
2013-1-20,59.4,47.8,40.3,40.9,30.6,16.7,73,53,30,30.07,29.82,20,10,24,0.00
2013-1-21,44.6,36.9,28.6,36.7,25.0,16.5,86,62,47,30.12,29.77,18,5,23,0.00
2013-1-22,33.0,24.3,20.4,17.7,5.7,0.7,55,45,37,30.28,29.90,16,6,26,0.00
2013-1-23,26.7,22.7,17.9,14.1,6.4,2.9,65,49,39,30.35,30.16,12,4,20,0.00
2013-1-24,27.3,23.2,18.6,17.3,11.6,3.4,92,63,36,30.50,30.09,14,5,20,0.00
2013-1-25,26.8,24.0,21.8,21.5,12.5,6.1,89,62,48,30.50,30.07,17,5,20,0.00
2013-1-26,34.5,28.7,23.9,23.0,21.1,19.0,86,74,57,30.43,30.08,10,2,15,0.01
2013-1-27,36.2,28.4,21.2,27.1,21.8,18.2,89,77,55,30.60,30.43,8,1,10,0.01
2013-1-28,43.9,36.9,29.4,41.2,34.0,26.0,94,89,83,30.52,30.04,18,7,24,0.19
2013-1-29,63.4,49.0,36.3,52.7,44.7,35.0,97,86,66,30.14,30.00,10,4,15,0.00
2013-1-30,64.5,57.9,49.5,59.0,54.2,46.9,95,88,79,30.01,29.30,24,11,39,0.00
2013-1-31,60.9,46.0,31.7,57.8,33.4,17.2,95,63,40,29.92,29.12,37,8,48,0.85
2013-2-1,36.0,29.6,23.0,31.1,17.4,8.9,94,61,46,30.38,29.81,12,4,21,0.00
2013-2-2,33.0,27.2,20.6,29.3,16.8,9.4,92,65,49,30.39,30.01,20,6,23,0.00
2013-2-3,35.6,30.2,23.5,30.1,26.2,22.0,95,85,68,30.01,29.84,13,2,21,0.02
2013-2-4,38.4,31.9,26.7,31.4,20.8,13.1,80,64,53,30.12,29.90,15,4,26,0.00
2013-2-5,41.4,36.6,30.9,34.3,31.4,28.9,93,82,65,29.93,29.85,11,2,16,0.00
2013-2-6,46.2,36.8,29.0,35.1,30.4,26.3,95,79,54,30.36,29.92,12,2,17,0.00
2013-2-7,41.1,34.4,27.1,31.9,28.2,25.1,100,79,61,30.46,30.20,11,4,14,0.00
2013-2-8,41.6,38.6,35.0,40.8,36.3,27.0,97,92,67,30.20,29.67,14,5,25,0.60
2013-2-9,38.9,34.7,30.8,27.9,21.9,19.4,69,60,50,30.38,29.86,16,4,30,0.00
2013-2-10,39.7,34.2,25.4,33.1,21.9,12.4,83,62,34,30.50,30.28,0,0,0,0.00
2013-2-11,52.7,46.0,37.9,51.9,44.2,33.2,100,94,83,30.28,29.70,0,0,0,0.36
2013-2-12,54.2,46.0,37.7,45.5,34.2,29.6,96,65,43,29.99,29.78,0,0,0,0.00
2013-2-13,46.9,39.7,35.0,40.3,33.5,28.6,95,79,63,29.96,29.64,7,1,14,0.28
2013-2-14,47.9,39.3,33.2,35.7,33.8,30.0,96,82,52,30.03,29.73,10,2,15,0.11
2013-2-15,57.7,45.0,34.9,41.3,38.0,33.3,100,78,51,30.04,29.89,12,5,18,0.00
2013-2-16,39.1,36.5,34.8,36.1,33.0,23.1,95,87,62,30.01,29.78,9,4,14,0.12
2013-2-17,34.7,31.0,26.9,23.8,16.9,11.7,70,56,45,30.18,29.78,16,6,26,0.00
2013-2-18,38.2,31.3,24.3,30.5,16.9,10.1,78,55,38,30.38,30.18,11,5,20,0.00
2013-2-19,44.7,41.3,37.1,43.6,35.7,27.6,96,81,64,30.19,29.74,18,9,24,0.10
2013-2-20,39.8,34.8,27.7,30.1,20.2,12.7,68,55,48,30.15,29.84,14,6,23,0.01
2013-2-21,38.5,32.1,26.5,21.5,18.1,13.9,62,56,47,30.31,30.12,14,5,22,0.00
2013-2-22,35.9,33.1,30.5,33.7,26.1,20.5,95,76,62,30.40,30.22,9,3,15,0.02
2013-2-23,44.4,40.0,35.0,43.6,39.1,33.7,100,97,95,30.22,29.79,7,2,12,0.18
2013-2-24,50.7,43.1,35.2,44.0,35.5,24.1,100,77,45,30.09,29.78,14,5,24,0.01
2013-2-25,45.4,36.6,30.4,30.7,27.1,23.8,93,69,53,30.22,30.09,10,2,16,0.00
2013-2-26,50.6,39.3,29.2,49.5,36.4,27.8,96,89,79,30.24,29.58,23,8,30,0.39
2013-2-27,55.4,48.7,42.5,49.7,44.2,38.1,97,85,60,29.69,29.48,10,3,17,0.03
2013-2-28,50.6,43.6,38.9,40.8,35.4,29.7,93,74,47,29.72,29.61,10,2,14,0.19
2013-3-1,46.0,42.3,39.5,35.9,33.1,28.6,77,70,61,29.85,29.70,8,3,13,0.00
2013-3-2,39.4,36.7,32.5,28.8,26.6,23.4,75,67,59,29.87,29.80,7,3,14,0.00
2013-3-3,39.7,35.2,31.8,25.4,23.9,21.7,73,63,55,29.89,29.78,12,5,18,0.00
2013-3-4,41.7,36.1,30.3,25.6,22.6,18.9,68,58,48,30.02,29.89,14,5,21,0.00
2013-3-5,46.1,38.0,30.0,33.3,26.1,19.6,78,63,36,30.09,29.82,14,3,17,0.00
2013-3-6,41.2,39.1,34.2,39.3,36.3,30.0,94,90,68,29.92,29.53,26,14,39,1.48
2013-3-7,48.1,42.8,38.7,34.2,31.2,28.1,76,64,52,30.12,29.92,18,8,25,0.00
2013-3-8,46.3,42.2,37.2,33.0,29.5,25.8,70,61,53,30.23,30.09,17,8,26,0.00
2013-3-9,56.5,43.5,34.1,35.0,29.1,22.7,89,59,29,30.33,30.23,12,4,17,0.00
2013-3-10,57.6,44.6,31.4,40.3,34.2,29.3,93,70,35,30.35,30.25,10,3,12,0.00
2013-3-11,58.1,49.6,41.5,50.7,45.6,39.8,100,87,75,30.27,29.99,12,5,18,0.00
2013-3-12,57.4,53.0,43.9,55.7,48.7,35.1,96,86,69,30.00,29.71,23,8,30,1.03
2013-3-13,50.9,43.2,33.8,36.9,32.1,22.6,94,66,44,30.04,29.89,13,4,22,0.00
2013-3-14,45.6,39.2,34.0,26.8,22.3,18.2,63,51,35,30.11,29.99,14,5,24,0.00
2013-3-15,52.9,43.5,34.3,38.6,30.2,23.2,79,60,39,30.09,29.79,21,7,28,0.00
2013-3-16,57.3,46.3,38.3,46.7,39.0,34.8,92,76,58,29.92,29.65,13,4,17,0.00
2013-3-17,42.1,39.0,37.2,35.9,32.2,26.8,89,77,62,30.28,29.91,13,4,16,0.00
2013-3-18,41.4,38.5,33.5,39.3,32.9,23.3,96,81,58,30.34,29.85,14,5,17,0.34
2013-3-19,54.1,45.1,38.9,44.9,37.2,19.2,97,78,31,29.90,29.72,11,3,20,0.09
2013-3-20,53.1,45.0,36.3,37.5,25.1,19.0,78,47,27,30.00,29.76,15,5,21,0.00
2013-3-21,43.1,36.6,31.7,37.3,22.1,13.0,84,56,40,29.90,29.72,13,6,22,0.00
2013-3-22,46.6,37.9,30.8,26.7,21.7,15.2,66,52,40,30.00,29.88,12,4,18,0.00
2013-3-23,51.4,41.1,31.2,34.2,27.9,23.4,80,60,40,30.03,29.91,12,3,17,0.00
2013-3-24,43.2,38.4,32.2,33.6,28.4,24.5,94,69,50,30.00,29.67,13,3,16,0.04
2013-3-25,36.5,34.9,33.3,35.2,33.7,32.0,96,95,94,29.68,29.49,9,3,13,0.93
2013-3-26,50.2,41.6,33.7,39.6,34.6,31.0,96,78,53,29.96,29.68,9,2,14,0.01
2013-3-27,50.4,44.3,39.7,35.7,32.8,30.3,76,64,50,30.09,29.96,11,3,20,0.00
2013-3-28,49.3,44.0,37.6,35.9,33.0,30.5,78,66,51,30.20,30.08,13,4,20,0.00
2013-3-29,54.9,46.0,37.9,38.9,33.9,30.4,86,64,44,30.24,30.13,9,2,14,0.00
2013-3-30,58.7,47.3,36.6,40.8,35.6,29.4,94,67,36,30.22,30.11,12,1,14,0.00
2013-3-31,58.3,50.4,45.8,51.1,45.0,38.8,95,82,65,30.14,29.74,16,6,26,0.04
2013-4-1,65.3,51.8,42.4,51.9,42.4,26.3,100,73,45,29.96,29.70,12,4,20,0.00
2013-4-2,49.6,44.0,38.3,27.0,21.9,16.7,56,42,28,30.17,29.96,14,4,22,0.00
2013-4-3,51.4,43.9,35.7,27.1,21.5,16.4,58,41,30,30.36,30.16,16,5,24,0.00
2013-4-4,48.7,40.6,31.5,37.9,25.4,18.3,92,56,38,30.42,30.11,20,6,23,0.07
2013-4-5,62.1,48.2,38.7,44.1,37.5,27.8,96,71,30,30.11,29.81,10,3,13,1.08
2013-4-6,52.7,46.5,41.5,36.8,29.2,23.5,78,52,37,30.34,30.02,13,4,20,0.00
2013-4-7,62.1,52.2,43.1,48.2,43.2,32.6,87,72,56,30.31,30.01,21,10,32,0.00
2013-4-8,75.2,63.0,51.0,56.6,51.2,46.1,84,66,43,30.09,29.97,13,6,16,0.00
2013-4-9,81.3,69.2,56.7,60.3,56.3,52.7,88,65,45,30.07,29.94,16,7,21,0.00
2013-4-10,85.3,73.4,61.1,63.0,58.8,55.1,85,62,42,29.96,29.78,18,8,21,0.00
2013-4-11,81.2,67.5,52.5,65.6,59.0,50.5,94,75,56,29.88,29.76,20,7,25,0.00
2013-4-12,69.9,58.8,51.8,67.5,57.5,50.4,100,95,88,29.85,29.58,16,6,23,1.53
2013-4-13,64.3,56.2,46.2,51.9,47.1,41.5,96,73,46,29.94,29.71,12,4,18,0.00
2013-4-14,65.5,56.1,45.5,52.0,47.2,41.8,100,74,46,30.14,29.94,11,2,17,0.00
2013-4-15,61.7,57.6,54.4,51.3,49.6,47.2,89,75,65,30.29,30.12,12,5,17,0.00
2013-4-16,71.0,61.6,53.9,60.3,55.1,49.4,87,80,66,30.31,30.14,18,8,26,0.00
2013-4-17,74.8,65.3,60.0,64.3,59.3,55.0,95,82,65,30.24,30.12,15,5,21,0.00
2013-4-18,75.3,64.5,58.9,65.9,59.3,55.5,96,84,62,30.25,30.03,15,6,22,0.32
2013-4-19,76.6,68.2,54.0,67.3,63.4,52.0,96,85,70,30.03,29.63,29,12,38,1.03
2013-4-20,59.9,54.1,49.6,52.0,38.6,31.8,94,58,37,30.31,29.75,11,4,20,0.26
2013-4-21,52.4,47.6,42.3,37.8,31.4,26.2,77,54,41,30.60,30.31,13,5,20,0.00
2013-4-22,55.1,47.2,36.7,43.9,39.2,33.0,88,74,61,30.59,30.40,16,8,20,0.00
2013-4-23,58.7,50.7,46.2,48.2,44.3,40.8,92,79,64,30.40,30.13,15,5,18,0.00
2013-4-24,68.5,59.2,47.0,59.2,53.6,45.1,95,82,69,30.14,29.82,18,9,26,0.00
2013-4-25,66.3,54.6,47.4,57.4,41.9,35.0,91,63,43,30.29,29.90,17,5,26,0.00
2013-4-26,65.3,54.7,43.8,47.3,42.5,37.5,95,67,39,30.44,30.28,10,2,14,0.00
2013-4-27,67.9,57.3,45.6,52.3,43.4,33.0,97,65,31,30.42,30.29,10,2,14,0.00
2013-4-28,68.6,59.3,48.6,51.6,46.6,40.2,93,64,41,30.30,30.16,18,6,23,0.00
2013-4-29,59.8,56.8,54.6,58.1,54.7,46.4,96,93,66,30.18,30.07,12,5,20,0.77
2013-4-30,58.8,57.0,53.0,57.0,54.7,49.8,97,92,79,30.27,30.08,14,8,19,0.06
2013-5-1,67.4,57.0,47.8,50.8,46.2,37.8,91,70,34,30.42,30.27,14,7,18,0.00
2013-5-2,67.5,55.9,46.6,55.3,47.9,42.9,96,77,45,30.44,30.31,13,4,17,0.00
2013-5-3,60.8,54.4,46.8,48.2,45.4,42.0,93,73,53,30.38,30.31,18,7,25,0.00
2013-5-4,66.0,55.5,47.8,49.5,45.7,42.1,91,72,42,30.34,30.19,16,7,22,0.00
2013-5-5,61.7,52.3,44.7,50.4,45.0,41.1,88,77,60,30.25,30.16,13,6,18,0.00
2013-5-6,62.7,55.4,47.6,58.1,52.8,45.2,96,91,84,30.18,30.06,16,8,20,0.00
2013-5-7,63.9,60.2,57.2,61.6,58.8,56.1,97,95,91,30.07,29.93,16,9,22,1.33
2013-5-8,70.6,60.7,55.1,62.1,57.5,54.0,100,90,66,30.01,29.94,12,3,16,0.08
2013-5-9,71.8,62.0,53.6,62.7,58.4,53.4,100,89,69,30.00,29.91,10,3,13,0.05
2013-5-10,81.2,69.9,56.5,65.7,61.2,55.7,100,76,47,30.01,29.88,11,3,15,0.00
2013-5-11,76.7,68.3,63.2,70.4,64.9,61.8,96,89,74,29.95,29.70,17,6,23,1.25
2013-5-12,64.6,61.4,55.7,62.9,47.3,33.4,97,63,35,30.01,29.72,12,4,20,0.50
2013-5-13,60.5,55.3,50.1,39.4,33.7,28.5,59,44,33,30.15,30.01,14,5,24,0.00
2013-5-14,62.6,55.1,46.2,49.1,37.4,30.8,70,52,35,30.20,30.06,13,3,20,0.00
2013-5-15,78.6,66.8,57.0,65.6,57.2,47.8,86,72,57,30.08,29.68,16,7,24,0.00
2013-5-16,82.6,74.3,65.2,67.1,62.7,60.1,85,68,52,29.89,29.73,7,3,13,0.00
2013-5-17,78.3,70.6,60.9,60.8,54.0,41.6,94,59,29,30.16,29.89,9,2,13,0.00
2013-5-18,65.7,62.7,60.4,59.3,56.8,52.0,95,81,65,30.24,30.16,12,4,18,0.00
2013-5-19,75.9,66.8,60.6,69.3,63.9,59.2,97,91,75,30.21,30.09,6,2,12,0.00
2013-5-20,80.0,72.2,67.4,71.2,68.3,65.9,96,88,72,30.13,29.98,12,6,17,0.00
2013-5-21,80.2,73.3,67.8,72.8,69.0,66.0,96,87,74,30.00,29.88,12,8,16,0.00
2013-5-22,81.7,75.5,70.7,73.9,70.9,68.9,95,86,74,29.94,29.85,17,10,23,0.00
2013-5-23,79.8,74.0,70.4,72.5,69.5,68.2,93,86,74,29.91,29.76,20,11,25,0.00
2013-5-24,70.5,59.5,52.4,68.4,53.3,38.8,97,80,60,30.10,29.73,15,6,26,0.07
2013-5-25,65.2,56.9,48.4,45.3,40.8,36.4,72,56,40,30.13,30.06,14,6,24,0.00
2013-5-26,70.3,60.8,53.7,51.9,43.7,39.3,93,55,34,30.20,30.11,12,3,16,0.00
2013-5-27,71.6,62.3,50.2,57.6,50.2,44.6,94,67,41,30.28,30.18,7,1,12,0.00
2013-5-28,80.8,69.7,59.1,69.6,63.3,55.9,93,81,66,30.20,30.07,14,5,19,0.42
2013-5-29,85.2,76.2,67.8,72.7,68.9,64.8,91,79,60,30.13,30.07,18,9,22,0.00
2013-5-30,86.7,77.5,69.7,73.9,69.4,65.5,90,77,57,30.19,30.11,14,7,18,0.00
2013-5-31,87.2,77.9,68.3,74.0,70.0,66.1,94,78,57,30.16,30.03,15,8,20,0.00
2013-6-1,88.5,79.8,71.8,75.0,71.5,67.8,90,76,60,30.05,29.93,17,10,21,0.00
2013-6-2,86.6,77.9,70.6,74.4,71.1,67.4,96,80,66,29.94,29.83,29,12,37,0.13
2013-6-3,77.3,71.1,66.9,71.5,68.8,66.0,100,93,77,29.92,29.79,13,4,16,0.77
2013-6-4,74.3,67.0,59.8,68.4,54.5,47.4,100,66,41,30.11,29.91,10,3,16,0.00
2013-6-5,78.4,68.7,57.7,62.5,58.9,54.1,100,73,45,30.17,30.06,12,4,16,0.00
2013-6-6,76.8,69.6,62.6,66.6,62.3,57.5,93,78,63,30.10,29.87,12,4,18,0.07
2013-6-7,71.6,70.2,66.8,70.9,69.0,65.9,100,96,90,29.87,29.53,19,6,25,2.73
2013-6-8,75.9,69.4,66.4,68.6,66.2,64.9,97,90,72,30.08,29.64,8,3,15,0.06
2013-6-9,82.3,73.1,64.6,73.2,68.5,64.6,100,87,62,30.19,30.08,10,2,13,0.00
2013-6-10,81.0,74.7,69.7,75.6,72.0,67.5,97,92,80,30.11,29.82,21,8,32,1.39
2013-6-11,82.8,75.2,69.5,73.0,68.7,65.9,96,81,62,29.83,29.75,14,6,17,0.01
2013-6-12,85.1,77.9,71.2,73.6,69.5,65.3,90,76,63,29.85,29.78,10,3,16,0.00
2013-6-13,87.9,76.1,71.0,76.0,69.8,61.0,92,81,59,29.81,29.44,25,8,33,0.06
2013-6-14,74.8,67.0,59.6,62.6,59.0,55.3,94,77,54,29.95,29.54,14,5,21,0.27
2013-6-15,80.5,71.5,62.4,67.3,62.8,59.3,95,75,53,30.07,29.95,10,2,13,0.00
2013-6-16,83.8,75.4,67.2,72.6,68.8,65.6,97,81,61,30.01,29.86,14,6,20,0.00
2013-6-17,83.3,77.1,72.5,75.5,71.7,68.9,93,84,62,29.95,29.88,13,5,16,0.08
2013-6-18,77.0,71.1,63.2,73.7,69.0,62.3,97,93,84,29.93,29.78,19,4,25,1.82
2013-6-19,75.9,68.9,62.8,66.3,64.0,61.4,100,85,63,30.16,29.86,11,3,15,0.00
2013-6-20,77.7,71.0,64.9,65.2,60.4,53.7,90,70,55,30.28,30.16,13,6,16,0.00
2013-6-21,80.3,71.0,58.0,67.2,60.8,54.0,95,72,47,30.30,30.23,9,3,12,0.00
2013-6-22,83.9,74.1,62.2,71.2,66.0,60.7,97,77,53,30.26,30.15,16,5,21,0.00
2013-6-23,79.7,74.3,68.2,75.7,71.0,64.9,97,90,80,30.19,30.07,14,5,17,0.60
2013-6-24,88.0,78.0,71.4,78.8,73.8,69.8,97,87,70,30.12,30.00,15,6,25,0.02
2013-6-25,89.1,79.8,70.6,78.6,73.6,65.6,97,82,62,30.04,29.89,12,6,20,0.04
2013-6-26,88.1,78.9,69.4,79.0,73.3,67.1,97,84,64,29.96,29.78,14,4,16,0.01
2013-6-27,84.9,77.1,72.6,77.7,72.8,69.7,94,87,77,29.83,29.61,24,8,33,0.03
2013-6-28,87.1,77.3,70.2,76.4,72.5,68.4,97,86,67,29.63,29.49,23,6,29,1.88
2013-6-29,84.7,77.9,71.0,76.2,72.6,68.4,100,85,63,29.70,29.51,11,3,15,0.01
2013-6-30,85.0,79.6,77.1,77.9,75.6,73.6,94,88,79,29.85,29.70,15,8,18,0.00
2013-7-1,80.9,77.5,74.6,76.6,74.5,71.2,96,91,85,30.01,29.84,16,8,23,0.24
2013-7-2,83.4,77.2,73.5,77.0,73.8,71.5,97,89,79,30.19,30.01,21,12,26,1.50
2013-7-3,86.3,79.1,75.6,79.1,75.1,72.4,94,88,74,30.24,30.17,18,9,26,0.02
2013-7-4,86.4,80.4,76.2,78.2,75.2,73.6,94,85,71,30.27,30.18,15,10,21,0.00
2013-7-5,86.7,81.6,76.0,78.4,75.7,72.7,90,83,72,30.24,30.13,18,11,21,0.00
2013-7-6,89.3,83.2,77.8,80.2,76.5,73.6,90,81,69,30.19,30.07,16,10,21,0.00
2013-7-7,89.3,82.3,75.2,79.5,74.9,70.0,87,79,68,30.11,29.99,21,10,24,0.00
2013-7-8,84.8,78.5,73.7,77.1,71.9,69.6,91,81,63,30.10,30.02,13,5,16,0.00
2013-7-9,84.8,79.6,75.9,77.3,74.4,71.1,90,84,73,30.10,30.00,13,5,15,0.00
2013-7-10,86.8,80.8,74.1,79.3,76.2,72.0,95,86,75,30.02,29.86,23,10,29,0.08
2013-7-11,82.8,77.1,73.8,74.7,72.7,69.0,95,87,67,29.91,29.87,15,3,20,0.06
2013-7-12,76.1,72.0,69.5,74.7,70.7,68.2,97,95,87,29.99,29.87,9,3,18,2.72
2013-7-13,86.5,77.6,68.7,78.8,73.4,67.8,100,87,73,30.28,29.99,12,3,16,0.01
2013-7-14,88.2,81.3,76.6,79.4,75.6,72.5,96,84,63,30.33,30.27,11,5,13,0.00
2013-7-15,91.3,82.4,74.9,80.1,76.2,73.0,95,82,61,30.30,30.17,12,4,14,0.00
2013-7-16,90.9,83.5,77.6,77.5,75.5,72.3,96,78,56,30.21,30.15,8,2,14,0.00
2013-7-17,92.0,83.4,75.4,78.8,76.0,72.1,100,80,53,30.19,30.08,6,1,10,0.00
2013-7-18,92.6,84.9,77.0,82.5,78.8,75.4,96,83,60,30.10,30.00,12,3,15,0.00
2013-7-19,92.4,86.6,80.3,82.2,79.2,76.4,89,79,67,30.01,29.87,17,10,21,0.00
2013-7-20,90.8,84.6,80.6,82.3,77.8,75.9,87,80,69,29.90,29.79,22,11,26,0.00
2013-7-21,89.2,81.2,75.7,78.1,74.3,70.9,97,80,60,29.93,29.86,11,3,17,0.04
2013-7-22,87.3,80.9,74.8,78.2,75.6,73.3,97,85,69,29.92,29.76,15,5,20,0.00
2013-7-23,87.5,80.9,75.8,77.0,74.0,69.8,95,80,63,29.76,29.63,18,6,21,0.07
2013-7-24,83.3,77.7,73.4,72.4,69.9,64.1,93,77,65,29.89,29.66,10,3,14,0.00
2013-7-25,75.9,70.3,65.9,67.3,62.0,57.1,85,75,68,30.01,29.89,11,6,17,0.00
2013-7-26,81.8,73.1,64.1,68.8,64.0,59.1,90,74,48,30.08,30.00,8,3,14,0.00
2013-7-27,82.9,77.5,72.4,73.2,70.5,67.0,94,80,65,30.05,29.93,18,7,21,0.00
2013-7-28,85.0,77.7,71.3,76.0,72.2,68.6,96,83,71,29.96,29.87,18,9,21,0.99
2013-7-29,80.9,73.1,66.0,71.0,63.2,56.1,96,73,48,30.15,29.96,10,2,14,0.00
2013-7-30,80.9,72.7,64.5,66.1,63.1,59.0,94,73,51,30.22,30.13,10,2,13,0.00
2013-7-31,81.4,74.6,67.2,71.8,68.3,65.3,97,81,67,30.15,30.02,14,4,20,0.00
2013-8-1,77.7,73.2,70.1,73.8,71.1,68.0,97,93,80,30.02,29.81,21,6,25,1.37
2013-8-2,84.5,76.5,68.6,74.5,68.9,63.2,97,79,53,29.97,29.83,15,5,17,0.00
2013-8-3,79.5,74.0,69.2,71.9,68.4,65.7,96,83,66,29.97,29.91,9,2,12,0.02
2013-8-4,80.5,72.6,64.9,68.4,62.9,56.3,97,73,50,30.01,29.88,9,3,15,0.02
2013-8-5,78.0,70.5,63.0,64.5,60.1,55.6,90,71,51,30.11,30.00,9,2,14,0.00
2013-8-6,74.8,70.5,64.9,69.0,66.4,60.5,93,87,74,30.10,30.01,19,5,24,0.02
2013-8-7,82.5,75.0,69.7,74.7,70.5,66.9,95,86,73,30.09,30.01,12,6,18,0.04
2013-8-8,83.9,79.3,75.8,76.6,74.3,72.4,91,85,76,30.05,29.99,17,9,21,0.00
2013-8-9,89.6,81.3,76.0,79.9,76.2,73.5,94,85,68,29.99,29.84,18,9,24,0.03
2013-8-10,80.5,76.2,69.1,74.4,69.3,61.5,94,80,57,30.07,29.92,6,2,10,0.00
2013-8-11,81.8,75.2,68.5,73.8,70.4,66.1,97,86,67,30.11,30.01,6,1,8,0.00
2013-8-12,85.4,77.5,70.5,75.8,72.3,69.2,97,85,61,30.03,29.91,7,1,10,0.00
2013-8-13,82.2,78.6,70.9,76.9,73.0,69.1,96,84,67,29.91,29.74,17,5,22,0.85
2013-8-14,74.2,69.4,64.4,70.7,57.3,49.9,97,67,54,30.08,29.79,13,4,22,0.00
2013-8-15,75.5,67.5,59.5,60.6,55.5,50.3,92,67,43,30.19,30.08,9,2,14,0.00
2013-8-16,78.2,67.9,58.1,64.4,59.1,54.2,100,76,48,30.20,30.13,7,1,12,0.00
2013-8-17,78.0,69.3,60.2,65.7,61.8,59.1,96,78,55,30.27,30.19,11,4,17,0.00
2013-8-18,74.1,68.3,63.9,69.2,64.7,61.2,95,88,81,30.22,30.15,9,2,12,0.17
2013-8-19,74.9,69.1,64.6,69.1,65.8,62.8,97,90,79,30.18,30.08,14,4,16,0.01
2013-8-20,82.0,73.9,64.6,75.5,69.7,63.6,100,87,70,30.16,30.08,9,3,12,0.00
2013-8-21,84.9,78.1,71.0,76.9,73.4,70.1,100,86,70,30.20,30.08,12,6,16,0.00
2013-8-22,85.6,78.0,71.8,76.9,72.8,70.1,96,85,68,30.09,29.92,20,5,23,0.12
2013-8-23,78.0,74.3,68.6,71.6,66.8,57.3,88,78,58,30.09,29.92,9,2,12,0.00
2013-8-24,80.4,71.5,63.1,70.4,64.4,61.0,94,79,57,30.33,30.09,11,3,14,0.00
2013-8-25,78.7,69.2,60.0,65.4,60.5,53.2,100,76,45,30.42,30.27,10,2,12,0.00
2013-8-26,81.7,73.9,66.5,71.1,65.1,58.9,82,74,66,30.30,30.00,16,10,20,0.00
2013-8-27,86.4,78.3,72.7,75.1,70.8,66.9,95,78,63,30.00,29.87,13,4,17,0.00
2013-8-28,85.0,76.1,72.4,75.9,72.9,71.2,97,90,71,29.90,29.81,15,2,20,0.01
2013-8-29,83.4,75.5,70.6,75.4,71.6,66.7,97,88,71,30.02,29.83,13,4,18,0.03
2013-8-30,81.8,74.9,66.9,73.4,70.0,65.2,97,85,73,30.04,29.90,16,6,22,0.00
2013-8-31,85.5,79.4,73.7,76.3,73.4,70.6,92,82,71,29.92,29.80,21,12,25,0.00
2013-9-1,86.2,79.7,73.0,77.5,74.1,70.9,94,83,68,29.85,29.76,13,6,17,0.00
2013-9-2,84.8,78.8,73.9,77.6,74.7,71.8,95,87,76,29.80,29.72,14,7,17,0.01
2013-9-3,83.8,78.3,72.2,75.4,68.1,59.8,93,72,49,29.94,29.72,11,4,15,0.00
2013-9-4,78.8,72.1,65.6,66.2,61.2,57.7,81,69,54,30.06,29.94,14,5,17,0.00
2013-9-5,83.7,74.8,66.5,67.4,63.4,53.1,91,69,51,30.11,29.99,13,3,18,0.00
2013-9-6,74.2,65.7,58.5,58.7,53.3,49.4,93,65,49,30.25,30.11,13,4,20,0.00
2013-9-7,77.8,68.1,56.2,65.7,61.0,55.1,97,79,51,30.15,29.93,13,5,15,0.00
2013-9-8,85.4,75.6,68.0,71.7,66.4,57.3,89,74,55,30.03,29.85,11,4,16,0.00
2013-9-9,78.0,70.1,60.9,69.1,61.1,51.0,90,73,61,30.19,30.03,11,4,16,0.00
2013-9-10,85.3,77.7,71.0,75.9,72.8,68.9,95,85,71,30.20,30.09,16,8,20,0.00
2013-9-11,88.8,80.6,73.9,77.6,74.5,72.1,94,82,63,30.15,30.01,12,7,17,0.00
2013-9-12,87.8,77.3,70.0,75.9,72.0,68.2,97,84,62,30.01,29.73,16,8,20,1.94
2013-9-13,77.4,71.6,66.2,72.0,62.2,53.7,100,74,48,29.89,29.69,10,4,15,0.01
2013-9-14,68.1,62.1,54.6,55.7,52.3,50.2,90,71,55,30.16,29.89,9,3,14,0.00
2013-9-15,73.7,63.4,50.9,63.0,56.3,49.8,97,79,55,30.24,30.10,13,4,18,0.00
2013-9-16,71.3,67.5,61.3,64.7,60.6,54.3,86,79,65,30.22,30.03,17,6,22,0.00
2013-9-17,65.5,59.3,52.5,54.4,48.9,43.8,85,69,49,30.41,30.22,16,5,22,0.00
2013-9-18,68.8,58.6,48.3,56.8,51.6,47.0,97,79,56,30.35,30.20,12,2,14,0.00
2013-9-19,73.5,63.5,52.6,61.9,56.8,51.5,97,80,52,30.20,30.08,11,2,14,0.00
2013-9-20,76.8,67.2,57.1,66.0,61.0,56.1,100,82,64,30.09,29.97,12,4,15,0.00
2013-9-21,77.8,69.8,63.7,68.8,65.0,59.9,96,85,63,29.99,29.69,22,8,28,0.81
2013-9-22,71.7,65.6,61.5,63.9,58.2,49.5,97,78,56,29.93,29.70,12,3,16,0.84
2013-9-23,64.8,58.3,51.9,51.8,48.6,45.6,93,71,55,30.08,29.92,11,4,17,0.84
2013-9-24,69.0,57.9,48.4,54.6,50.7,46.3,96,78,52,30.10,29.93,9,2,14,0.84
2013-9-25,71.3,60.0,52.4,56.6,53.3,44.6,97,80,40,29.97,29.88,8,1,12,0.84
2013-9-26,73.8,62.8,56.1,62.1,57.4,54.3,97,84,56,30.07,29.91,10,2,13,0.84
2013-9-27,71.0,62.7,55.6,60.9,57.1,53.3,97,83,60,30.24,30.07,10,2,13,0.84
2013-9-28,72.1,62.1,54.6,60.0,56.2,52.9,96,82,60,30.29,30.21,11,3,14,0.84
2013-9-29,73.4,62.6,54.5,61.3,56.1,51.6,97,81,54,30.21,30.06,10,2,13,0.00
2013-9-30,72.2,60.8,52.4,58.8,54.4,51.2,97,81,53,30.09,29.99,8,1,10,0.00
2013-10-1,78.5,66.4,56.0,66.6,61.2,54.9,97,84,61,30.06,29.96,10,2,12,0.00
2013-10-2,81.9,70.9,63.6,68.2,63.8,60.2,94,80,56,30.08,29.99,10,2,12,0.00
2013-10-3,79.6,70.1,61.8,70.6,65.7,60.9,100,87,65,30.10,30.04,9,1,12,0.00
2013-10-4,82.9,71.4,63.1,70.6,66.7,62.2,100,86,57,30.08,30.00,6,1,9,0.00
2013-10-5,84.4,74.0,66.4,70.5,68.1,65.0,100,83,55,30.08,30.00,6,1,10,0.00
2013-10-6,84.5,76.2,70.4,72.0,69.8,67.8,95,81,63,30.03,29.94,16,6,21,0.00
2013-10-7,78.7,69.4,60.3,73.1,66.0,50.1,96,89,65,30.04,29.82,24,8,35,0.85
2013-10-8,63.2,60.0,56.0,52.2,50.0,48.0,85,70,61,30.27,30.04,13,4,21,0.00
2013-10-9,60.7,58.3,55.7,55.8,52.8,49.3,94,82,70,30.28,30.17,13,7,21,0.28
2013-10-10,61.4,58.1,55.6,60.4,56.9,54.0,97,96,94,30.17,29.93,15,7,21,1.37
2013-10-11,65.6,63.1,61.1,64.7,62.3,60.2,100,97,96,29.97,29.88,10,5,18,0.27
2013-10-12,66.5,62.9,61.1,63.0,61.6,60.2,97,96,87,30.14,29.95,13,6,20,0.22
2013-10-13,65.3,62.3,59.2,61.5,58.8,54.8,97,89,79,30.32,30.13,18,9,24,0.12
2013-10-14,67.8,59.7,53.4,60.7,55.6,51.8,97,87,73,30.32,30.22,11,3,15,0.08
2013-10-15,69.6,59.9,51.8,61.7,55.7,50.9,100,87,68,30.24,30.07,7,1,12,0.06
2013-10-16,68.0,62.8,58.5,63.4,60.1,56.8,96,91,82,30.08,29.92,5,1,7,0.08
2013-10-17,73.7,67.6,63.6,66.8,64.4,61.8,97,90,78,29.93,29.74,19,7,23,0.00
2013-10-18,67.4,59.0,49.9,62.4,49.8,46.2,96,73,51,30.01,29.79,11,3,20,0.00
2013-10-19,63.0,57.5,50.0,61.6,54.5,48.9,100,90,73,30.00,29.80,14,3,17,0.07
2013-10-20,62.0,54.4,46.7,54.5,43.9,39.0,96,69,44,30.10,29.84,12,4,22,0.02
2013-10-21,65.8,55.7,44.9,54.8,48.6,43.9,100,79,50,30.16,29.97,17,4,20,0.00
2013-10-22,63.4,57.8,52.8,55.5,52.5,50.3,96,83,72,29.98,29.85,15,7,17,0.00
2013-10-23,54.6,47.1,45.0,45.2,41.9,39.4,91,83,61,29.87,29.69,10,3,17,0.01
2013-10-24,53.9,48.1,45.1,41.0,36.0,30.0,78,64,49,30.12,29.87,14,4,20,0.00
2013-10-25,54.9,48.0,42.2,40.5,36.6,34.2,77,65,52,30.32,30.12,10,3,15,0.00
2013-10-26,57.4,49.1,35.9,42.9,37.2,33.4,95,65,45,30.31,29.95,25,9,32,0.00
2013-10-27,59.9,51.6,42.2,44.4,40.5,37.6,95,67,48,30.15,29.94,16,3,22,0.00
2013-10-28,62.9,50.0,40.9,50.6,43.7,37.8,96,80,55,30.28,30.15,6,1,9,0.00
2013-10-29,62.1,51.1,43.1,52.2,46.2,40.4,96,84,64,30.37,30.27,7,1,10,0.00
2013-10-30,61.8,55.6,49.9,58.4,53.8,48.2,97,93,86,30.34,30.16,10,1,14,0.03
2013-10-31,67.4,61.3,51.7,62.7,58.3,50.6,100,90,79,30.20,29.82,14,5,20,0.02
2013-11-1,68.9,65.4,61.7,64.1,62.2,59.4,97,90,82,29.83,29.60,26,10,35,0.02
2013-11-2,68.8,59.8,52.7,62.9,53.0,43.1,100,80,50,29.87,29.62,9,1,14,0.02
2013-11-3,54.7,50.7,41.2,45.7,38.4,28.7,80,63,44,30.45,29.86,13,5,20,0.00
2013-11-4,46.4,40.5,35.9,33.9,28.2,24.5,78,62,45,30.62,30.45,13,4,20,0.00
2013-11-5,61.4,50.2,40.1,50.4,44.0,33.8,95,80,63,30.61,30.47,8,2,10,0.00
2013-11-6,64.3,57.6,49.4,56.8,51.8,47.2,93,81,66,30.47,30.08,13,4,16,0.00
2013-11-7,65.2,57.3,47.8,61.2,51.6,31.0,96,82,52,30.08,29.84,16,7,27,0.02
2013-11-8,52.3,46.6,40.4,35.7,30.7,27.0,70,54,43,30.31,30.06,13,4,20,0.00
2013-11-9,53.9,46.9,33.8,41.8,35.4,29.2,91,65,50,30.36,30.04,21,7,28,0.00
2013-11-10,64.3,53.2,46.3,44.9,36.9,31.2,73,55,36,30.22,29.93,18,7,23,0.00
2013-11-11,54.5,49.3,42.5,44.7,37.6,32.1,80,64,50,30.31,30.02,19,6,26,0.00
2013-11-12,52.6,43.5,36.6,42.0,29.5,17.5,77,58,41,30.38,29.97,18,7,25,0.00
2013-11-13,43.9,37.5,33.5,28.8,23.9,19.6,79,58,44,30.46,30.37,14,4,21,0.00
2013-11-14,53.0,41.8,31.4,39.0,31.2,24.1,92,68,41,30.40,30.24,13,4,17,0.00
2013-11-15,52.9,45.3,39.4,41.6,36.5,32.8,87,72,53,30.29,30.20,14,4,18,0.00
2013-11-16,52.3,49.4,45.2,50.9,48.2,41.6,97,96,87,30.33,30.24,5,1,6,0.25
2013-11-17,64.0,56.5,47.5,58.6,54.2,46.7,100,92,80,30.24,29.78,12,3,21,0.01
2013-11-18,67.6,58.7,51.6,60.4,46.4,30.2,97,68,36,29.90,29.70,16,5,22,0.20
2013-11-19,52.5,46.6,41.1,33.3,30.7,26.4,61,54,46,30.36,29.90,15,6,22,0.00
2013-11-20,47.6,39.5,33.9,33.4,29.1,25.2,87,67,52,30.56,30.35,11,4,16,0.00
2013-11-21,51.2,42.2,34.3,43.1,37.3,30.0,94,83,71,30.56,30.39,5,1,7,0.00
2013-11-22,60.4,52.4,44.7,54.8,50.2,43.1,97,92,79,30.39,29.98,15,3,18,0.13
2013-11-23,54.0,46.8,35.3,52.9,32.9,19.1,97,60,37,30.17,29.99,17,5,27,0.03
2013-11-24,35.3,30.1,27.4,21.0,12.8,9.4,59,48,40,30.51,30.16,18,7,25,0.00
2013-11-25,38.1,31.6,26.0,25.4,18.1,13.9,71,57,47,30.59,30.37,19,6,24,0.00
2013-11-26,59.5,41.6,36.1,58.6,35.1,21.4,97,80,50,30.37,29.52,20,6,31,1.07
2013-11-27,60.4,41.8,32.8,59.5,38.1,19.9,97,87,59,30.01,29.47,31,6,39,1.23
2013-11-28,38.3,32.6,27.6,27.9,20.6,17.6,86,62,46,30.49,30.01,11,3,24,0.00
2013-11-29,42.6,34.5,26.0,30.4,25.6,21.6,92,71,51,30.73,30.47,8,2,15,0.00
2013-11-30,38.6,32.9,27.7,29.6,24.6,20.1,90,72,60,30.72,30.38,11,2,13,0.00
2013-12-1,47.3,36.1,27.2,38.9,31.7,25.4,100,85,62,30.38,30.02,6,1,9,0.00
2013-12-2,51.0,41.4,32.5,39.6,36.8,30.2,95,84,60,30.02,29.88,5,1,7,0.00
2013-12-3,56.0,44.3,37.9,41.0,37.9,34.9,95,80,47,30.01,29.88,7,1,10,0.00
2013-12-4,54.9,47.8,38.3,50.5,45.3,36.5,95,91,83,30.09,29.99,7,2,10,0.00
2013-12-5,59.5,54.3,47.0,58.2,52.9,45.6,100,95,91,30.09,29.95,14,5,20,0.00
2013-12-6,59.9,50.8,39.6,59.6,49.8,38.6,100,96,95,30.16,29.90,13,6,20,0.70
2013-12-7,43.9,39.3,35.0,38.6,33.8,25.9,96,81,67,30.53,30.10,12,5,20,0.49
2013-12-8,35.0,32.3,29.7,32.1,27.3,22.9,95,82,69,30.58,30.26,14,4,20,0.38
2013-12-9,38.8,35.8,33.4,38.0,34.8,32.1,100,96,95,30.27,30.03,10,2,14,1.01
2013-12-10,36.8,35.2,32.9,35.5,32.4,24.6,96,90,68,30.24,29.97,8,2,20,0.34
2013-12-11,42.8,34.0,28.4,28.9,24.8,20.8,93,70,51,30.42,30.24,12,2,15,0.00
2013-12-12,34.7,29.8,24.8,30.3,19.1,12.7,94,65,45,30.42,30.25,14,4,23,0.00
2013-12-13,43.5,35.0,26.6,27.9,23.3,20.1,85,64,40,30.32,30.22,15,5,20,0.00
2013-12-14,48.4,38.6,30.9,47.5,34.6,26.1,100,86,70,30.34,29.68,10,3,14,0.80
2013-12-15,48.0,40.0,32.5,42.0,34.0,26.1,96,80,62,29.96,29.62,9,3,20,0.01
2013-12-16,37.8,34.0,29.7,29.8,25.9,21.7,86,72,61,30.21,29.95,11,2,15,0.00
2013-12-17,41.4,35.9,32.7,38.0,31.9,25.9,93,85,73,30.18,29.94,9,3,12,0.05
2013-12-18,40.7,34.0,27.9,31.7,27.3,23.9,94,78,53,30.24,29.98,8,1,16,0.01
2013-12-19,55.2,42.1,27.0,36.6,32.6,24.7,95,71,48,30.22,30.08,20,8,24,0.00
2013-12-20,54.6,50.1,44.4,50.8,41.8,34.8,89,73,60,30.13,30.01,18,10,22,0.00
2013-12-21,63.7,56.8,50.1,56.4,51.3,46.2,91,82,69,30.04,29.93,18,10,25,0.00
2013-12-22,66.5,59.9,54.4,61.7,57.6,52.3,95,92,83,30.05,29.88,22,9,28,0.23
2013-12-23,61.6,54.2,41.9,61.6,51.8,32.0,100,92,68,30.21,29.93,15,5,18,0.41
2013-12-24,41.9,37.1,27.2,32.0,24.6,11.2,70,61,44,30.45,30.17,15,7,26,0.00
2013-12-25,32.3,28.1,24.6,23.3,17.6,13.4,82,65,56,30.57,30.41,13,4,20,0.00
2013-12-26,43.2,32.8,24.1,28.9,26.0,21.3,93,77,50,30.41,30.23,15,3,18,0.00
2013-12-27,47.8,37.2,28.1,33.8,29.2,23.7,94,75,47,30.44,30.33,12,3,17,0.00
2013-12-28,53.6,41.8,32.4,36.7,33.8,29.1,92,75,48,30.34,30.13,13,5,16,0.00
2013-12-29,53.2,46.3,42.7,52.4,42.8,34.9,97,88,66,30.13,29.50,15,5,20,0.89
2013-12-30,48.7,40.6,33.5,43.9,34.7,24.6,96,80,64,30.19,29.83,10,3,17,0.00
2013-12-31,46.2,36.7,30.6,33.6,24.7,19.5,73,62,51,30.34,30.11,19,5,23,0.00
2014-1-1,46.2,37.0,28.0,35.7,28.2,19.5,88,71,54,30.43,30.15,15,3,17,0.00
2014-1-2,40.9,35.4,29.9,37.7,33.4,28.4,96,92,86,30.15,29.57,12,3,14,0.04